Precipitable_Water
0.19 0.18 0.20 0.20 0.18 0.17 0.15 0.15 0.12 0.12 0.13 0.13 0.17 0.19 0.21 0.24 0.28 0.29 0.30 0.31 0.32 0.32 0.32 0.33 0.34 0.35 0.36 0.36 0.36 0.37 0.35 0.33 0.32 0.32 0.32 0.32 0.32 0.33 0.33 0.33 0.33 0.33 0.32 0.32
0.18 0.20 0.19 0.15 0.17 0.18 0.17 0.16 0.14 0.14 0.12 0.16 0.18 0.21 0.22 0.25 0.27 0.27 0.28 0.30 0.33 0.33 0.33 0.34 0.35 0.35 0.35 0.36 0.36 0.36 0.34 0.32 0.33 0.32 0.32 0.32 0.32 0.32 0.33 0.34 0.36 0.39 0.41 0.42
0.12 0.16 0.15 0.11 0.13 0.14 0.15 0.17 0.17 0.13 0.14 0.19 0.18 0.19 0.22 0.24 0.27 0.27 0.29 0.32 0.33 0.34 0.35 0.36 0.36 0.35 0.35 0.37 0.38 0.36 0.33 0.31 0.30 0.31 0.31 0.32 0.35 0.35 0.37 0.39 0.40 0.40 0.39 0.40
0.18 0.20 0.13 0.16 0.17 0.15 0.13 0.14 0.17 0.16 0.17 0.18 0.18 0.20 0.21 0.25 0.27 0.29 0.31 0.33 0.35 0.35 0.36 0.37 0.38 0.36 0.38 0.39 0.38 0.34 0.29 0.29 0.32 0.35 0.37 0.38 0.38 0.37 0.37 0.38 0.37 0.37 0.38 0.40
0.18 0.17 0.19 0.21 0.23 0.22 0.18 0.16 0.17 0.14 0.15 0.17 0.20 0.21 0.19 0.24 0.27 0.29 0.32 0.35 0.36 0.38 0.38 0.39 0.37 0.38 0.37 0.36 0.37 0.36 0.35 0.36 0.38 0.39 0.39 0.38 0.36 0.36 0.36 0.37 0.38 0.38 0.38 0.35
0.23 0.18 0.16 0.21 0.25 0.27 0.26 0.19 0.24 0.25 0.23 0.23 0.24 0.17 0.19 0.27 0.31 0.32 0.36 0.39 0.40 0.42 0.43 0.42 0.43 0.44 0.43 0.41 0.40 0.37 0.37 0.38 0.40 0.40 0.38 0.37 0.37 0.37 0.39 0.41 0.39 0.36 0.33 0.31
0.25 0.22 0.23 0.28 0.29 0.31 0.20 0.21 0.29 0.29 0.29 0.29 0.28 0.30 0.35 0.38 0.38 0.42 0.45 0.48 0.50 0.48 0.46 0.45 0.46 0.46 0.42 0.40 0.39 0.39 0.40 0.40 0.39 0.39 0.38 0.38 0.40 0.40 0.38 0.36 0.35 0.32 0.30 0.30
0.28 0.25 0.21 0.33 0.32 0.26 0.28 0.32 0.32 0.32 0.33 0.32 0.34 0.36 0.37 0.38 0.40 0.43 0.44 0.46 0.46 0.45 0.45 0.46 0.47 0.45 0.41 0.39 0.40 0.41 0.40 0.39 0.39 0.39 0.39 0.40 0.39 0.37 0.35 0.33 0.31 0.29 0.27 0.24
0.27 0.26 0.33 0.35 0.33 0.35 0.35 0.33 0.34 0.34 0.35 0.37 0.37 0.38 0.40 0.39 0.41 0.43 0.45 0.46 0.47 0.46 0.46 0.46 0.46 0.44 0.41 0.41 0.42 0.41 0.40 0.40 0.40 0.41 0.40 0.39 0.36 0.33 0.31 0.30 0.27 0.26 0.24 0.23
0.29 0.30 0.32 0.35 0.37 0.37 0.37 0.37 0.38 0.38 0.38 0.39 0.38 0.40 0.41 0.42 0.43 0.44 0.46 0.46 0.47 0.45 0.44 0.44 0.45 0.45 0.44 0.43 0.42 0.41 0.40 0.40 0.40 0.39 0.37 0.36 0.34 0.32 0.29 0.26 0.25 0.23 0.21 0.20
0.30 0.33 0.36 0.37 0.38 0.38 0.38 0.38 0.38 0.40 0.41 0.40 0.42 0.42 0.43 0.44 0.45 0.46 0.47 0.47 0.46 0.45 0.44 0.44 0.46 0.46 0.45 0.43 0.42 0.41 0.40 0.39 0.37 0.36 0.33 0.30 0.29 0.26 0.24 0.23 0.22 0.19 0.18 0.19
0.29 0.36 0.35 0.35 0.39 0.41 0.38 0.37 0.39 0.39 0.39 0.42 0.44 0.44 0.46 0.47 0.49 0.48 0.47 0.48 0.48 0.48 0.47 0.46 0.45 0.44 0.43 0.43 0.41 0.39 0.37 0.35 0.32 0.29 0.26 0.23 0.21 0.19 0.20 0.20 0.20 0.20 0.21 0.21
0.34 0.38 0.38 0.38 0.40 0.41 0.40 0.41 0.43 0.43 0.43 0.41 0.44 0.45 0.46 0.46 0.48 0.49 0.49 0.49 0.48 0.47 0.46 0.44 0.43 0.43 0.42 0.41 0.41 0.36 0.32 0.27 0.24 0.21 0.19 0.17 0.16 0.16 0.14 0.15 0.18 0.18 0.18 0.19
0.42 0.42 0.38 0.39 0.37 0.40 0.42 0.44 0.46 0.46 0.47 0.47 0.46 0.48 0.48 0.48 0.50 0.51 0.50 0.49 0.48 0.45 0.44 0.43 0.42 0.43 0.42 0.37 0.34 0.29 0.24 0.21 0.19 0.18 0.17 0.16 0.15 0.15 0.15 0.15 0.14 0.14 0.16 0.18
0.43 0.43 0.41 0.42 0.43 0.43 0.44 0.46 0.46 0.46 0.48 0.49 0.50 0.50 0.51 0.51 0.51 0.50 0.49 0.47 0.45 0.44 0.43 0.45 0.46 0.36 0.32 0.30 0.25 0.22 0.20 0.18 0.17 0.17 0.16 0.16 0.16 0.16 0.16 0.16 0.15 0.15 0.16 0.17
0.44 0.44 0.43 0.42 0.43 0.45 0.49 0.51 0.49 0.50 0.51 0.51 0.50 0.51 0.51 0.49 0.48 0.46 0.45 0.44 0.42 0.43 0.47 0.39 0.32 0.29 0.26 0.23 0.20 0.19 0.17 0.17 0.17 0.17 0.16 0.16 0.16 0.16 0.16 0.16 0.16 0.16 0.16 0.16
0.42 0.42 0.44 0.45 0.49 0.52 0.53 0.53 0.54 0.52 0.50 0.50 0.49 0.48 0.46 0.45 0.43 0.42 0.43 0.45 0.46 0.39 0.34 0.31 0.27 0.23 0.21 0.20 0.18 0.16 0.16 0.16 0.16 0.16 0.16 0.16 0.16 0.16 0.16 0.17 0.16 0.16 0.17 0.19
0.45 0.49 0.52 0.50 0.47 0.44 0.44 0.44 0.45 0.45 0.45 0.46 0.46 0.44 0.43 0.43 0.43 0.46 0.44 0.37 0.33 0.30 0.29 0.23 0.20 0.19 0.18 0.17 0.17 0.17 0.16 0.16 0.16 0.15 0.16 0.16 0.16 0.17 0.17 0.17 0.18 0.18 0.18 0.20
0.47 0.48 0.46 0.45 0.43 0.41 0.41 0.41 0.42 0.42 0.42 0.42 0.42 0.42 0.44 0.44 0.39 0.33 0.31 0.29 0.27 0.24 0.18 0.19 0.18 0.18 0.18 0.18 0.18 0.18 0.17 0.16 0.16 0.16 0.17 0.17 0.17 0.17 0.18 0.18 0.18 0.19 0.20 0.20
0.41 0.42 0.41 0.39 0.40 0.39 0.38 0.39 0.38 0.39 0.43 0.44 0.43 0.38 0.31 0.28 0.26 0.26 0.26 0.24 0.21 0.20 0.20 0.19 0.19 0.19 0.19 0.19 0.18 0.18 0.17 0.17 0.16 0.16 0.17 0.16 0.16 0.16 0.17 0.18 0.19 0.20 0.20 0.21
0.34 0.35 0.35 0.35 0.36 0.37 0.38 0.41 0.42 0.40 0.39 0.32 0.27 0.24 0.25 0.27 0.25 0.24 0.22 0.20 0.21 0.22 0.22 0.21 0.20 0.19 0.19 0.19 0.19 0.18 0.18 0.17 0.17 0.17 0.17 0.17 0.17 0.18 0.19 0.20 0.20 0.21 0.21 0.23
0.33 0.35 0.36 0.37 0.38 0.37 0.37 0.36 0.33 0.28 0.25 0.25 0.27 0.26 0.24 0.23 0.23 0.23 0.23 0.20 0.21 0.21 0.20 0.20 0.19 0.19 0.18 0.19 0.19 0.18 0.18 0.18 0.18 0.19 0.18 0.18 0.18 0.19 0.20 0.21 0.22 0.22 0.23 0.25
0.31 0.28 0.27 0.26 0.25 0.24 0.25 0.25 0.25 0.25 0.25 0.25 0.24 0.22 0.22 0.21 0.21 0.19 0.17 0.20 0.21 0.20 0.19 0.18 0.19 0.19 0.19 0.19 0.19 0.19 0.19 0.19 0.18 0.18 0.18 0.19 0.20 0.22 0.22 0.22 0.23 0.25 0.26 0.27
0.20 0.21 0.21 0.21 0.21 0.19 0.18 0.19 0.21 0.22 0.22 0.22 0.21 0.21 0.20 0.20 0.20 0.21 0.20 0.19 0.19 0.19 0.18 0.19 0.19 0.20 0.21 0.20 0.19 0.18 0.18 0.18 0.18 0.19 0.20 0.22 0.23 0.24 0.24 0.24 0.26 0.27 0.28 0.28
0.21 0.21 0.22 0.21 0.20 0.20 0.21 0.21 0.20 0.21 0.21 0.21 0.21 0.22 0.21 0.21 0.19 0.18 0.18 0.18 0.18 0.19 0.18 0.18 0.18 0.18 0.18 0.17 0.17 0.17 0.18 0.18 0.19 0.21 0.22 0.23 0.24 0.24 0.26 0.28 0.28 0.28 0.29 0.29
0.18 0.18 0.19 0.19 0.19 0.20 0.20 0.20 0.18 0.18 0.18 0.17 0.17 0.18 0.19 0.19 0.19 0.18 0.17 0.16 0.16 0.16 0.16 0.16 0.17 0.17 0.17 0.18 0.18 0.18 0.19 0.20 0.22 0.23 0.24 0.25 0.25 0.27 0.28 0.29 0.29 0.30 0.30 0.30
0.17 0.17 0.17 0.17 0.18 0.18 0.18 0.17 0.17 0.16 0.17 0.16 0.15 0.16 0.16 0.16 0.16 0.16 0.16 0.16 0.16 0.16 0.17 0.17 0.17 0.18 0.19 0.19 0.19 0.20 0.21 0.22 0.23 0.24 0.25 0.27 0.28 0.28 0.29 0.30 0.31 0.31 0.31 0.30
Wind_Speed
5 6 5 7 10 13 17 16 17 19 22 22 22 22 23 22 23 24 25 25 25 25 25 26 26 26 26 26 26 26 26 26 26 25 24 23 21 22 23 23 24 24 24 25
7 6 8 9 11 13 17 17 21 19 24 22 23 21 22 24 25 26 27 27 27 27 27 28 28 27 27 27 27 27 26 25 24 23 22 23 23 23 24 24 25 25 26 26
8 7 8 11 15 17 15 17 17 19 21 18 20 23 25 26 27 28 28 28 28 29 29 28 28 28 27 27 26 26 25 24 23 23 23 24 24 25 25 26 27 27 27 28
10 9 10 11 9 11 17 19 22 23 23 23 23 24 26 27 28 28 28 28 28 28 28 28 28 27 27 26 25 25 24 24 24 24 25 25 25 26 27 28 28 29 30 30
12 13 16 15 13 14 16 18 19 24 23 22 22 22 23 25 27 28 28 28 29 28 27 27 26 26 26 26 26 25 25 25 25 25 26 27 28 28 29 29 30 31 31 32
14 16 16 14 13 14 15 18 17 18 21 21 21 22 23 23 24 25 26 27 26 26 26 27 27 27 26 26 26 26 26 26 27 27 28 29 29 30 31 32 32 32 33 33
20 21 23 21 19 18 17 19 18 19 20 20 21 23 23 23 24 24 25 26 26 26 27 27 26 26 26 26 27 27 28 28 28 29 30 30 31 32 33 33 33 34 34 34
20 22 26 20 18 20 20 20 20 21 21 22 23 22 23 23 23 24 24 25 26 26 27 27 27 27 27 28 28 28 29 29 30 31 32 32 33 34 34 34 35 35 35 36
24 24 23 23 22 23 22 23 24 25 25 26 26 27 26 25 25 25 26 26 27 27 27 28 28 28 28 29 29 29 30 31 32 33 33 34 34 35 35 36 37 37 38 38
26 28 30 30 29 29 28 29 29 29 29 28 29 28 28 28 28 28 28 28 28 28 29 29 30 30 30 30 31 31 31 32 33 34 34 35 36 37 37 38 38 39 40 40
30 31 32 33 33 33 33 33 33 32 32 32 31 30 30 29 29 30 30 30 30 30 30 31 31 31 32 31 31 32 32 33 34 35 35 36 37 38 38 39 40 40 41 42
34 32 34 34 34 34 34 34 35 34 34 34 34 33 32 32 32 32 32 32 32 32 32 32 32 32 32 32 32 32 33 34 34 35 36 36 37 37 38 39 40 42 43 44
37 34 35 35 34 34 35 36 36 37 37 36 35 35 34 33 34 34 33 33 33 32 32 31 31 31 32 33 33 33 33 34 34 35 36 36 37 38 38 39 41 42 43 44
38 34 35 34 34 35 35 35 34 34 35 36 36 36 35 35 35 35 34 33 32 31 31 31 31 32 33 33 33 34 34 35 35 36 36 37 38 39 40 41 42 43 42 44
36 36 37 36 35 34 34 33 34 34 34 35 35 35 34 33 32 31 31 30 30 31 31 32 32 32 33 33 33 34 34 35 35 36 37 38 39 40 42 43 45 46 46 46
35 34 34 34 34 34 34 35 34 33 33 32 31 31 30 29 29 29 29 30 30 31 33 32 32 33 34 33 33 34 35 36 36 37 38 40 41 43 44 45 46 47 48 48
34 34 33 34 35 36 35 34 33 32 30 30 29 28 27 27 28 28 29 30 31 32 32 32 33 33 33 34 34 35 36 36 38 39 41 42 44 45 46 47 48 48 49 49
33 32 32 32 31 31 31 31 30 30 30 29 28 28 27 28 28 29 31 31 31 31 32 33 33 33 34 34 35 35 36 38 39 40 42 44 45 46 47 48 49 50 50 50
28 28 28 29 29 29 28 28 28 27 26 26 26 27 27 29 29 29 30 30 30 31 31 32 33 33 33 34 35 36 38 39 41 42 44 45 46 48 48 49 50 50 49 48
22 24 24 25 25 25 25 25 24 24 25 25 26 26 26 27 28 28 28 29 29 30 31 32 33 34 35 36 37 38 39 41 42 43 45 47 48 49 49 49 48 47 46 45
18 19 19 20 21 21 21 22 23 24 23 24 24 25 26 26 27 28 29 30 29 31 32 33 34 35 36 38 39 40 41 42 44 45 47 48 48 48 47 46 45 44 42 41
16 18 19 20 21 21 21 21 21 22 23 24 25 26 27 28 29 30 32 32 32 33 34 34 36 37 38 40 40 42 43 45 46 47 47 47 46 46 45 43 42 40 38 36
16 16 17 17 18 18 19 20 21 22 24 25 26 28 29 30 30 31 32 32 33 35 35 36 38 40 41 42 43 45 46 46 46 46 45 45 44 42 41 39 36 34 32 31
17 17 18 19 19 20 21 22 23 25 27 28 29 30 31 32 33 34 35 36 37 38 39 40 42 43 44 45 45 45 44 44 44 43 43 42 40 38 35 33 31 30 30 31
21 21 22 23 23 24 25 27 28 29 30 31 32 33 34 34 35 36 37 38 40 41 42 43 44 45 44 44 43 43 42 41 40 39 38 36 34 32 30 29 28 29 30 31
23 23 24 25 26 27 28 29 30 30 31 32 33 34 35 37 38 39 40 41 41 42 43 43 43 43 42 41 40 39 38 36 35 34 33 31 29 28 27 27 28 28 29 29
24 25 26 27 28 29 30 31 32 34 34 35 37 37 38 38 39 40 41 42 42 43 43 43 42 41 39 38 37 35 33 32 31 31 29 28 27 27 27 27 27 28 28 28
Wind_Direction
275 257 235 225 216 212 217 224 225 240 236 246 246 244 244 241 239 238 238 240 241 243 246 250 254 259 263 268 272 276 279 282 285 288 290 292 295 297 300 301 303 304 305 305
285 275 255 256 240 231 233 237 246 248 254 243 251 249 246 245 242 242 243 243 245 247 249 253 257 261 264 268 271 274 277 280 283 285 287 290 293 296 298 300 302 303 303 303
282 289 279 271 247 237 239 239 238 240 248 250 253 252 249 248 247 246 247 247 247 249 252 256 259 261 264 267 270 272 275 277 280 283 286 289 292 295 297 299 300 301 302 303
275 285 265 264 260 252 244 252 246 255 254 253 256 257 256 253 250 249 248 248 249 251 254 256 258 260 263 265 267 270 273 275 279 282 285 289 291 294 296 297 299 299 300 300
269 267 278 273 264 258 254 265 254 252 255 254 257 260 261 256 253 250 249 250 251 252 254 256 257 259 261 264 267 269 271 274 278 281 284 287 290 293 294 296 297 298 299 299
268 268 265 268 267 264 263 270 263 257 257 253 253 258 260 258 257 254 249 249 249 251 254 256 257 259 261 263 265 268 271 274 278 281 284 287 289 292 293 294 296 297 298 298
264 270 274 269 266 264 264 267 263 262 262 256 257 259 263 261 260 256 252 250 250 252 255 256 256 258 261 263 266 268 272 275 278 281 284 286 288 291 293 294 295 296 296 296
261 265 275 263 265 258 264 267 266 264 262 260 261 264 264 262 259 256 252 251 252 254 255 255 257 259 262 265 267 270 273 276 279 282 285 287 289 291 292 294 294 295 295 296
255 262 269 265 267 266 267 267 267 266 266 265 264 263 263 263 260 258 254 254 255 255 256 257 258 261 264 267 269 271 274 277 280 283 285 287 289 291 292 293 293 294 296 296
266 266 264 264 267 268 268 268 269 268 267 266 266 264 263 262 260 259 257 256 257 256 257 259 260 263 266 268 271 273 276 279 281 283 286 288 289 290 291 292 293 294 295 296
267 269 270 267 267 267 267 267 268 268 267 266 265 264 263 263 261 259 258 258 257 257 259 261 262 265 267 270 272 275 278 280 282 284 287 288 290 291 291 293 294 295 295 295
269 269 269 269 269 266 265 266 265 266 267 266 265 264 264 263 261 260 259 258 259 260 261 262 264 266 268 271 274 276 279 281 283 286 287 289 290 292 293 294 295 296 295 295
270 271 270 269 268 268 268 267 266 265 264 264 265 264 263 263 261 259 259 258 259 259 261 262 264 267 270 273 275 277 280 282 284 286 288 290 291 292 294 296 297 297 297 296
269 269 269 267 268 268 268 269 267 266 265 264 262 263 262 262 261 260 257 257 258 259 261 263 267 270 272 274 276 279 281 283 285 287 289 290 292 293 294 295 297 298 299 298
269 266 267 269 269 267 267 268 267 266 265 263 263 263 262 260 258 257 256 257 259 261 264 267 270 270 273 275 277 279 281 284 286 288 289 291 292 293 294 296 297 297 298 298
270 268 267 267 268 267 267 267 266 267 265 263 261 261 260 259 257 256 257 259 262 264 267 268 269 272 274 276 277 280 282 284 286 288 290 292 293 294 295 295 296 297 297 297
268 268 266 266 267 267 265 264 263 262 262 261 260 258 258 258 259 260 261 264 266 267 268 270 272 273 275 276 278 280 282 285 287 289 291 292 293 294 295 295 296 296 296 297
265 268 267 265 266 265 264 263 262 261 260 259 258 258 259 260 261 263 265 267 269 270 271 271 273 274 275 277 279 281 284 286 288 290 292 293 294 294 295 295 295 296 297 297
268 264 265 267 267 265 263 262 262 261 260 259 259 259 261 263 264 265 267 269 270 272 272 273 273 275 277 279 281 283 285 287 289 291 292 294 295 295 295 295 295 296 296 296
269 268 268 269 269 266 264 263 261 260 260 261 262 261 262 265 267 269 270 271 272 272 274 275 276 277 279 280 282 284 286 288 290 292 293 295 295 295 295 295 295 295 295 295
273 273 273 272 271 269 266 264 264 263 261 260 260 262 265 268 270 271 273 273 274 275 276 276 277 279 281 282 283 285 286 288 290 292 294 295 296 296 296 296 296 295 295 295
280 278 277 274 272 270 268 266 263 261 260 262 265 267 269 271 272 273 274 274 277 277 278 278 280 281 283 284 285 286 287 289 291 293 294 295 295 295 295 295 295 294 293 293
285 284 281 276 273 270 268 266 264 264 266 268 269 270 271 273 274 276 277 278 279 279 280 280 281 283 284 285 286 287 288 289 291 292 294 294 294 294 294 294 293 292 292 293
289 286 284 280 278 274 272 271 272 272 272 273 273 274 275 276 277 278 279 280 280 281 281 283 283 284 285 286 286 287 288 289 290 292 293 293 293 292 292 292 291 291 293 294
288 286 284 282 280 279 278 277 277 276 276 276 276 277 277 277 277 280 281 282 282 283 283 284 285 285 286 286 286 286 287 288 290 292 294 293 291 290 290 289 289 292 294 295
288 286 285 283 282 282 281 280 279 279 279 278 278 279 279 280 281 281 282 283 283 284 285 286 286 286 286 286 286 286 286 286 289 292 293 292 290 289 288 289 291 293 296 297
290 289 287 286 285 284 283 282 282 281 281 281 280 281 281 281 282 282 283 284 284 285 286 286 286 285 285 285 284 283 283 284 287 290 292 290 288 287 289 290 292 295 298 298